Regional Weather Roundup
Issued by NWS Tiyan, Guam

Home | Current Version | Previous Version | Text Only | Print | Product List | Glossary On
Versions: 1 2 3 4 5 6 7 8 9 10 11 12 13 14 15 16 17 18 19 20 21 22 23 24 25 26 27 28 29 30 31 32 33 34 35 36 37 38 39 40 41 42 43 44 45 46 47 48 49 50
000
ASGM40 PGUM 022112
RWRGUM
WEATHER ROUNDUP FOR THE MARIANAS
NATIONAL WEATHER SERVICE TIYAN GU
700 AM CHST WED SEP 03 2014

GUZ001>004-022200-
MARIANA ISLANDS-

CITY           SKY/WX    TMP DP  RH WIND       PRES   REMARKS
GUAM AIRPORT   MOSUNNY   81  77  89 SE5       29.81R
ANDERSEN AFB   MOSUNNY   75  73  94 S3        29.81R
ROTA AIRPORT   MOSUNNY   77  75  94 SW2       29.80R
TINIAN AP      PTSUNNY   82  77  83 SW6       29.75R HX  91
SAIPAN AP      MOSUNNY   81  79  94 SW6       29.78R

$$



USA.gov is the U.S. government's official web portal to all federal, state and local government web resources and services.